• în România
  • Lista ţărilor
  • Pe 7 zile
  • Temperatura apei
  • Hartă satelitară
  • Meteo pe hartă
  • Widget-uri
  • user-avatar
    Intrare

    Meteo pe oră la Córdoba

    Astăzi, 21 Mai, Luni

    Timp Temperatura Precipitaţii Vânt Presiune Umiditate
    00:00 +12°C° 0 mm 2 m/s 724 mmHg 67%
    01:00 +12°C° 0 mm 1 m/s 724 mmHg 68%
    02:00 +12°C° 0 mm 1 m/s 724 mmHg 69%
    03:00 +12°C° 0 mm 1 m/s 724 mmHg 70%
    04:00 +12°C° 0 mm 2 m/s 724 mmHg 72%
    05:00 +10°C° 0 mm 2 m/s 725 mmHg 73%
    06:00 +12°C° 0 mm 2 m/s 725 mmHg 73%
    07:00 +12°C° 0 mm 2 m/s 726 mmHg 74%
    08:00 +11°C° 0 mm 3 m/s 726 mmHg 74%
    09:00 +13°C° 0 mm 3 m/s 727 mmHg 69%
    10:00 +14°C° 0 mm 4 m/s 727 mmHg 63%
    11:00 +17°C° 0 mm 4 m/s 728 mmHg 57%
    12:00 +18°C° 0 mm 4 m/s 727 mmHg 56%
    13:00 +18°C° 0 mm 4 m/s 727 mmHg 54%
    14:00 +19°C° 0 mm 4 m/s 727 mmHg 52%
    15:00 +18°C° 0 mm 3 m/s 727 mmHg 57%
    16:00 +17°C° 0 mm 3 m/s 726 mmHg 62%
    17:00 +16°C° 0 mm 2 m/s 726 mmHg 67%
    18:00 +15°C° 0 mm 2 m/s 727 mmHg 72%
    19:00 +13°C° 0 mm 1 m/s 727 mmHg 77%
    20:00 +12°C° 0 mm 1 m/s 727 mmHg 83%
    21:00 +12°C° 0 mm 1 m/s 728 mmHg 84%
    22:00 +11°C° 0 mm 1 m/s 728 mmHg 85%
    23:00 +11°C° 0 mm 1 m/s 728 mmHg 85%

    Mâine, 22 Mai, Marţi

    Timp Temperatura Precipitaţii Vânt Presiune Umiditate
    00:00 +11°C° 0 mm 1 m/s 728 mmHg 86%
    01:00 +10°C° 0 mm 1 m/s 728 mmHg 86%
    02:00 +10°C° 0 mm 1 m/s 728 mmHg 87%
    03:00 +9°C° 0 mm 0 m/s 728 mmHg 87%
    04:00 +9°C° 0 mm 0 m/s 728 mmHg 87%
    05:00 +8°C° 0 mm 0 m/s 728 mmHg 87%
    06:00 +9°C° 0 mm 0 m/s 729 mmHg 84%
    07:00 +9°C° 0 mm 0 m/s 729 mmHg 82%
    08:00 +10°C° 0 mm 0 m/s 730 mmHg 80%
    09:00 +12°C° 0 mm 1 m/s 730 mmHg 71%
    10:00 +14°C° 0 mm 1 m/s 730 mmHg 63%
    11:00 +16°C° 0 mm 2 m/s 731 mmHg 55%
    12:00 +17°C° 0 mm 2 m/s 730 mmHg 53%
    13:00 +18°C° 0 mm 3 m/s 730 mmHg 51%
    14:00 +19°C° 0 mm 3 m/s 729 mmHg 49%
    15:00 +18°C° 0 mm 3 m/s 729 mmHg 53%
    16:00 +17°C° 0 mm 3 m/s 728 mmHg 58%
    17:00 +16°C° 0 mm 2 m/s 728 mmHg 62%
    18:00 +14°C° 0 mm 2 m/s 728 mmHg 66%
    19:00 +13°C° 0 mm 2 m/s 728 mmHg 70%
    20:00 +12°C° 0 mm 2 m/s 729 mmHg 73%
    21:00 +12°C° 0 mm 2 m/s 729 mmHg 74%
    22:00 +10°C° 0 mm 2 m/s 729 mmHg 75%
    23:00 +10°C° 0 mm 2 m/s 729 mmHg 75%

    Poimâine, 23 Mai, Miercuri

    Timp Temperatura Precipitaţii Vânt Presiune Umiditate
    00:00 +10°C° 0 mm 2 m/s 729 mmHg 75%
    01:00 +10°C° 0 mm 2 m/s 729 mmHg 75%
    02:00 +9°C° 0 mm 2 m/s 729 mmHg 75%
    03:00 +9°C° 0 mm 2 m/s 729 mmHg 75%
    04:00 +9°C° 0 mm 2 m/s 728 mmHg 75%
    05:00 +9°C° 0 mm 2 m/s 728 mmHg 75%
    06:00 +9°C° 0 mm 2 m/s 729 mmHg 75%
    07:00 +10°C° 0 mm 2 m/s 729 mmHg 74%
    08:00 +10°C° 0 mm 2 m/s 730 mmHg 74%
    09:00 +12°C° 0 mm 3 m/s 730 mmHg 68%
    10:00 +14°C° 0 mm 4 m/s 730 mmHg 62%
    11:00 +17°C° 0 mm 4 m/s 731 mmHg 56%
    12:00 +18°C° 0 mm 4 m/s 730 mmHg 56%
    13:00 +18°C° 0 mm 4 m/s 730 mmHg 55%
    14:00 +19°C° 0 mm 4 m/s 729 mmHg 54%
    15:00 +18°C° 0 mm 4 m/s 729 mmHg 58%
    16:00 +17°C° 0 mm 4 m/s 729 mmHg 62%
    17:00 +17°C° 0 mm 3 m/s 729 mmHg 66%
    18:00 +14°C° 0 mm 3 m/s 729 mmHg 70%
    19:00 +13°C° 0 mm 3 m/s 729 mmHg 75%
    20:00 +13°C° 0 mm 2 m/s 730 mmHg 79%
    21:00 +13°C° 0 mm 2 m/s 730 mmHg 80%
    22:00 +13°C° 0 mm 2 m/s 730 mmHg 81%
    23:00 +12°C° 0 mm 2 m/s 730 mmHg 82%

    24 Mai, Joi

    Timp Temperatura Precipitaţii Vânt Presiune Umiditate
    00:00 +12°C° 0 mm 2 m/s 730 mmHg 84%
    01:00 +12°C° 0 mm 2 m/s 730 mmHg 85%
    02:00 +12°C° 0 mm 2 m/s 729 mmHg 86%
    03:00 +12°C° 0 mm 2 m/s 729 mmHg 87%
    04:00 +12°C° 0 mm 2 m/s 729 mmHg 88%
    05:00 +10°C° 0 mm 2 m/s 729 mmHg 89%
    06:00 +12°C° 0 mm 2 m/s 729 mmHg 88%
    07:00 +11°C° 0 mm 3 m/s 730 mmHg 86%
    08:00 +11°C° 0 mm 3 m/s 730 mmHg 85%
    09:00 +14°C° 0 mm 3 m/s 730 mmHg 76%
    10:00 +17°C° 0 mm 4 m/s 730 mmHg 67%
    11:00 +19°C° 0 mm 5 m/s 730 mmHg 58%
    12:00 +20°C° 0 mm 5 m/s 729 mmHg 55%
    13:00 +21°C° 0 mm 5 m/s 728 mmHg 52%
    14:00 +21°C° 0 mm 6 m/s 728 mmHg 50%
    15:00 +20°C° 0 mm 5 m/s 727 mmHg 54%
    16:00 +19°C° 0 mm 5 m/s 727 mmHg 58%
    17:00 +18°C° 0 mm 4 m/s 727 mmHg 62%
    18:00 +17°C° 0 mm 4 m/s 727 mmHg 67%
    19:00 +14°C° 0 mm 3 m/s 727 mmHg 72%
    20:00 +13°C° 0 mm 3 m/s 727 mmHg 77%
    21:00 +13°C° 0 mm 3 m/s 727 mmHg 78%
    22:00 +12°C° 0 mm 3 m/s 727 mmHg 79%
    23:00 +12°C° 0 mm 3 m/s 727 mmHg 80%

    25 Mai, Vineri

    Timp Temperatura Precipitaţii Vânt Presiune Umiditate
    00:00 +12°C° 0 mm 3 m/s 727 mmHg 80%
    01:00 +12°C° 0 mm 3 m/s 727 mmHg 80%
    02:00 +11°C° 0 mm 3 m/s 727 mmHg 80%
    03:00 +11°C° 0 mm 3 m/s 726 mmHg 79%
    04:00 +11°C° 0 mm 3 m/s 726 mmHg 79%
    05:00 +11°C° 0 mm 3 m/s 726 mmHg 78%
    06:00 +11°C° 0 mm 3 m/s 726 mmHg 76%
    07:00 +11°C° 0 mm 3 m/s 727 mmHg 74%
    08:00 +12°C° 0 mm 3 m/s 727 mmHg 71%
    09:00 +14°C° 0 mm 3 m/s 727 mmHg 64%
    10:00 +17°C° 0 mm 4 m/s 727 mmHg 56%
    11:00 +20°C° 0 mm 5 m/s 727 mmHg 48%
    12:00 +20°C° 0 mm 5 m/s 726 mmHg 46%
    13:00 +21°C° 0 mm 5 m/s 725 mmHg 44%
    14:00 +22°C° 0 mm 5 m/s 725 mmHg 42%
    15:00 +21°C° 0 mm 5 m/s 724 mmHg 47%
    16:00 +20°C° 0 mm 5 m/s 724 mmHg 51%
    17:00 +19°C° 0 mm 4 m/s 723 mmHg 55%
    18:00 +17°C° 0 mm 4 m/s 723 mmHg 59%
    19:00 +15°C° 0 mm 4 m/s 723 mmHg 62%
    20:00 +14°C° 0 mm 4 m/s 723 mmHg 66%
    21:00 +14°C° 0 mm 4 m/s 723 mmHg 67%
    22:00 +13°C° 0 mm 4 m/s 723 mmHg 68%
    23:00 +13°C° 0 mm 4 m/s 722 mmHg 69%

    26 Mai, Sâmbătă

    Timp Temperatura Precipitaţii Vânt Presiune Umiditate
    00:00 +13°C° 0 mm 4 m/s 722 mmHg 69%
    01:00 +13°C° 0 mm 4 m/s 721 mmHg 69%
    02:00 +13°C° 0 mm 5 m/s 721 mmHg 70%
    03:00 +13°C° 0 mm 5 m/s 720 mmHg 69%
    04:00 +12°C° 0 mm 4 m/s 720 mmHg 69%
    05:00 +12°C° 0 mm 4 m/s 719 mmHg 69%
    06:00 +13°C° 0 mm 4 m/s 719 mmHg 68%
    07:00 +13°C° 0 mm 5 m/s 719 mmHg 67%
    08:00 +13°C° 0 mm 5 m/s 720 mmHg 66%
    09:00 +16°C° 0 mm 5 m/s 720 mmHg 59%
    10:00 +20°C° 0 mm 6 m/s 719 mmHg 51%
    11:00 +22°C° 0 mm 7 m/s 719 mmHg 44%
    12:00 +23°C° 0 mm 7 m/s 719 mmHg 42%
    13:00 +24°C° 0 mm 7 m/s 718 mmHg 41%
    14:00 +27°C° 0 mm 7 m/s 717 mmHg 39%
    15:00 +24°C° 0 mm 6 m/s 717 mmHg 44%
    16:00 +23°C° 0 mm 5 m/s 717 mmHg 49%
    17:00 +21°C° 0 mm 4 m/s 716 mmHg 54%
    18:00 +20°C° 0 mm 4 m/s 717 mmHg 58%
    19:00 +19°C° 0 mm 4 m/s 717 mmHg 62%
    20:00 +18°C° 0 mm 3 m/s 717 mmHg 65%
    21:00 +17°C° 0 mm 3 m/s 717 mmHg 68%
    22:00 +17°C° 0 mm 3 m/s 717 mmHg 70%
    23:00 +17°C° 0 mm 2 m/s 717 mmHg 73%
    Arată mai mult